This is the latest recevied weather packets stored in our database for station/object SQ4IXR-4. If no packets are shown the sender has not sent any weather packets the latest 10 day(s).
| Time | Temp. | Humidity | Pressure | Rain* | Wind** | Luminosity | Snow |
|---|---|---|---|---|---|---|---|
| 1787936527 | 20.56° C | 47% | 1023.7 hPa | - | - | - | - |
| 1787935705 | 21.11° C | 47% | 1023.9 hPa | - | - | - | - |
| 1787934882 | 21.67° C | 45% | 1023.8 hPa | - | - | - | - |
| 1787934059 | 21.67° C | 44% | 1023.8 hPa | - | - | - | - |
| 1787933236 | 22.22° C | 44% | 1023.7 hPa | - | - | - | - |
| 1787932414 | 22.22° C | 43% | 1023.9 hPa | - | - | - | - |
| 1787931590 | 22.78° C | 42% | 1024 hPa | - | - | - | - |
| 1787930767 | 23.33° C | 42% | 1024 hPa | - | - | - | - |
| 1787929943 | 23.33° C | 42% | 1024.2 hPa | - | - | - | - |
| 1787929120 | 23.33° C | 42% | 1024.4 hPa | - | - | - | - |
| 1787928296 | 23.33° C | 41% | 1025 hPa | - | - | - | - |
| 1787927472 | 23.33° C | 40% | 1025 hPa | - | - | - | - |
| 1787926650 | 23.89° C | 40% | 1025 hPa | - | - | - | - |
| 1787925826 | 23.89° C | 40% | 1025.3 hPa | - | - | - | - |
| 1787925003 | 23.89° C | 40% | 1025.2 hPa | - | - | - | - |
| 1787924180 | 24.44° C | 39% | 1025.3 hPa | - | - | - | - |
| 1787923357 | 24.44° C | 39% | 1025.8 hPa | - | - | - | - |
| 1787922530 | 23.33° C | 41% | 1026 hPa | - | - | - | - |
| 1787921707 | 22.78° C | 42% | 1026.1 hPa | - | - | - | - |
| 1787920889 | 24.44° C | 38% | 1026.1 hPa | - | - | - | - |
| 1787920065 | 26.67° C | 35% | 1026.1 hPa | - | - | - | - |
| 1787919236 | 23.33° C | 42% | 1026 hPa | - | - | - | - |
| 1787918414 | 23.89° C | 41% | 1026.3 hPa | - | - | - | - |
| 1787917591 | 23.33° C | 41% | 1026.6 hPa | - | - | - | - |
| 1787916767 | 23.33° C | 40% | 1026.7 hPa | - | - | - | - |
* Rain since midnight (hover to see other rain measurements)
** Current wind speed in m/s (hover to see current wind gust speed)